Starlink 2340

operational
NORAD ID: 47882 Int'l Des: 2021-021 Owner: SPXS Country: US Constellation: starlink
LEOCIRCULAR

About Starlink 2340

Description loading...

Live Position

Loading 3D Globe...

Upcoming Passes

Altitude History

Altitude vs Time

uPlot chart will show altitude changes over time

Two-Line Element Set

1 47882U 21021Y 25304.83336806 .00249824 00000-0 20603-2 0 9998
2 47882 53.0369 49.0874 0005809 317.4426 343.5932 15.69039495 5935
Epoch: Oct 31, 2025 • Age: 19 hours

Current Status

Altitude 366.4 km
Velocity 7.69 km/s
Sub-Earth Point 45.99°N, 168.14°W
Launch Date Mar 14, 2021
Age 4.6 years
Type internet

Technical Details

Classification Payload
Mass 260.00 kg
Dry Mass 248.00 kg
Total Mass 260.00 kg
Length 0.20 m
Diameter 2.80 m
Span 9.00 m
Shape Box + pan
Manufacturer SPXS
Bus Type Starlink
Phase Status In Orbit
Owner/State SPXS/US

Large Constellations

Loading constellations...